Lid_Strength_Index
3 4 4 3 3 3 3 2 0 -0 -1 -1 -1 -0 -0 0 0 0 1 1 1 1
4 4 4 3 3 4 3 3 3 2 1 -0 -1 -0 -0 1 0 0 0 1 1 1
5 5 5 4 4 4 3 3 3 3 3 2 1 0 -0 0 0 1 1 1 1 1
5 5 4 5 5 5 5 5 5 5 4 4 3 2 1 0 0 1 1 1 1 1
5 5 6 6 6 6 7 6 6 5 5 5 5 3 3 2 1 1 1 1 1 1
6 7 7 7 7 7 7 7 7 7 7 6 6 5 3 3 2 1 1 1 1 1
7 7 8 8 8 8 8 8 8 7 7 7 6 6 4 3 2 1 1 1 1 1
8 8 8 8 8 7 7 7 7 8 7 7 7 6 5 5 4 2 1 1 1 1
9 9 8 7 7 7 7 7 7 8 8 8 7 8 7 6 5 5 4 3 1 0
8 8 8 8 8 8 8 8 8 8 7 7 7 7 7 6 5 4 3 3 3 1
8 8 8 9 9 8 8 8 7 7 7 7 7 7 8 7 5 3 3 3 3 1
9 10 10 9 9 7 7 6 7 6 7 7 7 8 8 6 4 4 3 3 1 1
9 10 10 9 8 6 6 7 6 7 6 7 6 7 8 7 5 4 3 2 1 4
9 9 8 8 7 7 6 7 6 7 6 6 5 4 7 7 5 4 2 2 2 1